Estación de El Carmen
Ultimos registro cada 15 minutos 65
| N° | Estación | Fecha / Hora | Temperatura | Humedad | Lluvia | Velocidad | Dirección | Radiación | Presion |
| 65 | El Carmen | 02-05-2026 16:00 | 18,4 | 60,8 | 0 | 1 | 146 | 26,9 | 973,8 |
| 64 | El Carmen | 02-05-2026 15:45 | 19 | 61,1 | 0 | 1,5 | 145 | 306,9 | 973,7 |
| 63 | El Carmen | 02-05-2026 15:30 | 19,2 | 59,1 | 0 | 1 | 142 | 338,1 | 973,5 |
| 62 | El Carmen | 02-05-2026 15:15 | 18,9 | 63,5 | 0 | 1 | 138 | 366,9 | 973,5 |
| 61 | El Carmen | 02-05-2026 15:00 | 18,8 | 65,6 | 0 | 1 | 133 | 391,9 | 973,5 |
| 60 | El Carmen | 02-05-2026 14:45 | 18,3 | 68,9 | 0 | 1 | 140 | 415,6 | 973,4 |
| 59 | El Carmen | 02-05-2026 14:30 | 17,8 | 70,4 | 0 | 1 | 136 | 434,4 | 973,4 |
| 58 | El Carmen | 02-05-2026 14:15 | 17,2 | 70,6 | 0 | 1 | 131 | 451,9 | 973,7 |
| 57 | El Carmen | 02-05-2026 14:00 | 16,7 | 73,4 | 0 | 1 | 133 | 464,4 | 973,9 |
| 56 | El Carmen | 02-05-2026 13:45 | 16,2 | 75,9 | 0 | 1,5 | 129 | 476,9 | 974,1 |
| 55 | El Carmen | 02-05-2026 13:30 | 15,2 | 78 | 0 | 1,5 | 133 | 486,9 | 974,3 |
| 54 | El Carmen | 02-05-2026 13:15 | 14,9 | 79,6 | 0 | 1,5 | 135 | 490,6 | 974,3 |
| 53 | El Carmen | 02-05-2026 13:00 | 14,1 | 80,8 | 0 | 1,5 | 132 | 494,4 | 974,5 |
| 52 | El Carmen | 02-05-2026 12:45 | 13,8 | 83,9 | 0 | 1,5 | 128 | 493,1 | 974,8 |
| 51 | El Carmen | 02-05-2026 12:30 | 13,3 | 85 | 0 | 1,5 | 126 | 489,4 | 975 |
| 50 | El Carmen | 02-05-2026 12:15 | 12,8 | 86,6 | 0 | 1,5 | 129 | 483,1 | 975,1 |
| 49 | El Carmen | 02-05-2026 12:00 | 12,1 | 88,4 | 0 | 1,5 | 131 | 474,4 | 975,3 |
| 48 | El Carmen | 02-05-2026 11:45 | 11,3 | 92,2 | 0 | 1,5 | 128 | 461,9 | 975,5 |
| 47 | El Carmen | 02-05-2026 11:30 | 10,4 | 96,8 | 0 | 1,5 | 132 | 446,9 | 975,7 |
| 46 | El Carmen | 02-05-2026 11:15 | 9,5 | 98,2 | 0 | 1,5 | 136 | 431,9 | 976 |
| 45 | El Carmen | 02-05-2026 11:00 | 8,9 | 98,4 | 0 | 1 | 139 | 215,6 | 976,2 |
| 44 | El Carmen | 02-05-2026 10:45 | 8,2 | 98,3 | 0 | 1 | 135 | 274,4 | 976,1 |
| 43 | El Carmen | 02-05-2026 10:30 | 7,8 | 98,3 | 0 | 1 | 138 | 156,9 | 976,3 |
| 42 | El Carmen | 02-05-2026 10:15 | 7,7 | 98,4 | 0 | 0,5 | 139 | 145,6 | 976,4 |
| 41 | El Carmen | 02-05-2026 10:00 | 7,4 | 98,4 | 0 | 0,5 | 131 | 143,1 | 976,5 |
| 40 | El Carmen | 02-05-2026 09:45 | 7,3 | 98,3 | 0 | 0,5 | 140 | 94,4 | 976,5 |
| 39 | El Carmen | 02-05-2026 09:30 | 6,8 | 98,3 | 0 | 0,5 | 131 | 85,6 | 976,6 |
| 38 | El Carmen | 02-05-2026 09:15 | 6,6 | 98,1 | 0 | 1 | 139 | 93,1 | 976,8 |
| 37 | El Carmen | 02-05-2026 09:00 | 6,6 | 98,1 | 0 | 1 | 140 | 63,1 | 976,9 |
| 36 | El Carmen | 02-05-2026 08:45 | 6,5 | 98,2 | 0 | 1,5 | 138 | 59,4 | 976,8 |
| 35 | El Carmen | 02-05-2026 08:30 | 6,4 | 98,1 | 0 | 1,5 | 133 | 31,9 | 976,7 |
| 34 | El Carmen | 02-05-2026 08:15 | 6,7 | 98,1 | 0 | 1,5 | 138 | 25,6 | 976,6 |
| 33 | El Carmen | 02-05-2026 08:00 | 6,7 | 98 | 0 | 1 | 133 | 14,4 | 976,4 |
| 32 | El Carmen | 02-05-2026 07:45 | 6,7 | 97,9 | 0 | 0,5 | 139 | 3,1 | 976,2 |
| 31 | El Carmen | 02-05-2026 07:30 | 6,8 | 97,8 | 0 | 1 | 135 | 0,6 | 976,2 |
| 30 | El Carmen | 02-05-2026 07:15 | 6,9 | 97,6 | 0 | 1 | 128 | 0,6 | 976,2 |
| 29 | El Carmen | 02-05-2026 07:00 | 6,9 | 97,2 | 0 | 1 | 132 | 0,6 | 976,2 |
| 28 | El Carmen | 02-05-2026 06:45 | 7 | 97 | 0 | 0,5 | 136 | 0,6 | 976,5 |
| 27 | El Carmen | 02-05-2026 06:30 | 7,1 | 96,8 | 0 | 1,5 | 136 | 0,6 | 976,5 |
| 26 | El Carmen | 02-05-2026 06:15 | 7,2 | 96,6 | 0 | 1 | 129 | 0,6 | 976,5 |
| 25 | El Carmen | 02-05-2026 06:00 | 7,3 | 96,6 | 0 | 1 | 124 | 0,6 | 976,4 |
| 24 | El Carmen | 02-05-2026 05:45 | 7,3 | 96,6 | 0 | 0,5 | 124 | 0,6 | 976,6 |
| 23 | El Carmen | 02-05-2026 05:30 | 7,3 | 96,4 | 0 | 0,5 | 126 | 0,6 | 976,7 |
| 22 | El Carmen | 02-05-2026 05:15 | 7,4 | 96,3 | 0 | 1 | 126 | 0,6 | 976,7 |
| 21 | El Carmen | 02-05-2026 05:00 | 7,4 | 96,3 | 0 | 1 | 125 | 0,6 | 977 |
| 20 | El Carmen | 02-05-2026 04:45 | 7,2 | 96,5 | 0 | 1,5 | 132 | 0,6 | 977,1 |
| 19 | El Carmen | 02-05-2026 04:30 | 6,8 | 96,4 | 0 | 1,5 | 124 | 0,6 | 977,2 |
| 18 | El Carmen | 02-05-2026 04:15 | 6,7 | 96,1 | 0 | 1,5 | 122 | 0,6 | 977,1 |
| 17 | El Carmen | 02-05-2026 04:00 | 6,8 | 96 | 0 | 0,5 | 125 | 0,6 | 977 |
| 16 | El Carmen | 02-05-2026 03:45 | 7,1 | 95,8 | 0 | 1 | 125 | 0,6 | 977,3 |
| 15 | El Carmen | 02-05-2026 03:30 | 7,2 | 95,8 | 0 | 1 | 129 | 0,6 | 977,6 |
| 14 | El Carmen | 02-05-2026 03:15 | 7,4 | 95,8 | 0 | 0,5 | 118 | 0,6 | 977,6 |
| 13 | El Carmen | 02-05-2026 03:00 | 7,5 | 95,7 | 0 | 0 | 110 | 0,6 | 977,6 |
| 12 | El Carmen | 02-05-2026 02:45 | 7,5 | 95,6 | 0 | 0 | 101 | 0,6 | 977,8 |
| 11 | El Carmen | 02-05-2026 02:30 | 7,6 | 95,2 | 0 | 0 | 114 | 0,6 | 978 |
| 10 | El Carmen | 02-05-2026 02:15 | 7,6 | 95,1 | 0 | 0 | 111 | 0,6 | 978,1 |
| 9 | El Carmen | 02-05-2026 02:00 | 7,9 | 95,1 | 0 | 0 | 118 | 0,6 | 978,3 |
| 8 | El Carmen | 02-05-2026 01:45 | 7,8 | 94,7 | 0 | 0 | 110 | 0,6 | 978,5 |
| 7 | El Carmen | 02-05-2026 01:30 | 8 | 94,3 | 0 | 0 | 117 | 0,6 | 978,6 |
| 6 | El Carmen | 02-05-2026 01:15 | 8,2 | 94,2 | 0 | 0 | 118 | 0,6 | 979 |
| 5 | El Carmen | 02-05-2026 01:00 | 8,5 | 94,4 | 0 | 0,5 | 122 | 0,6 | 979,1 |
| 4 | El Carmen | 02-05-2026 00:45 | 8,4 | 94,9 | 0 | 0 | 119 | 0,6 | 979,3 |
| 3 | El Carmen | 02-05-2026 00:30 | 8,4 | 95,3 | 0 | 0 | 117 | 0,6 | 979,5 |
| 2 | El Carmen | 02-05-2026 00:15 | 8,6 | 95,7 | 0 | 0 | 124 | 0,6 | 979,6 |
| 1 | El Carmen | 02-05-2026 00:00 | 8,9 | 95,9 | 0 | 0 | 124 | 0,6 | 979,6 |